Location: Bemmer
(51.5498°N, 5.6249°E)
Time: 12:21:15
(UTC+00:00)

MOS 1 - Pass Details

Date: 03 March 2021
Orbit: 878 x 892 km, 99.1° (Epoch: 11 April)

Event Time Altitude Azimuth Distance (km) Brightness Sun altitude
Exits shadow 19:25:57 17° 160° (SSE) 2,099 5.9 -20.0°
Maximum altitude 19:30:28 87° 75° (ENE) 897 4.2 -20.6°
Drops below altitude 10° 19:36:11 10° 345° (NNW) 2,559 7.1 -21.5°
Sets 19:38:35 0° 345° (NNW) 3,500 7.9 -21.9°
